Location: Berlin
(38.3226°N, 75.2177°W)
Time: 22:33:29
(UTC+00:00)

Cosmos 2251 Rocket - Pass Details

Date: 26 October 2020
Orbit: 766 x 791 km, 74.0° (Epoch: 04 December)

Event Time Altitude Azimuth Distance (km) Brightness Sun altitude
Rises 10:09:08 0° 205° (SSW) 3,272 6.6 -14.8°
Reaches altitude 10° 10:11:32 10° 208° (SSW) 2,346 5.8 -14.3°
Maximum altitude 10:16:50 65° 290° (WNW) 868 3.5 -13.3°
Drops below altitude 10° 10:22:09 10° 12° (NNE) 2,351 6.1 -12.2°
Sets 10:24:34 0° 16° (NNE) 3,279 6.9 -11.7°
